Location: Unspecified
(0.0000°N, 0.0000°E)
Time: 10:27:01
(UTC+00:00)

Tiangong - Pass Details

Date: 12 April 2024
Orbit: 371 x 379 km, 41.5° (Epoch: 19 April)

Event Time Altitude Azimuth Distance (km) Brightness Sun altitude
Rises 19:33:21 0° 254° (WSW) 2,208 2.8 -22.9°
Reaches altitude 10° 19:35:58 10° 277° (W) 1,358 1.7 -23.5°
Maximum altitude 19:37:54 16° 317° (NW) 1,082 0.7 -24.0°
Enters shadow 19:38:52 14° 339° (NNW) 1,157 0.6 -24.2°
